Content
SEND FEEDBACK

Daily
Averages
Monthly
Summary
United States of America

ROCK HILL, NEW YORK


Home > North America > United States > New York
Elevation: 1260 feet     Latitude: 41 35N     Longitude: 074 37W

WEATHER
 
SELECT A DAY
Number of Records: 443,503;   Date Range: 1/1/95 - 7/29/14
 
SHARE

PRINT THIS DATA

[ ← Previous Day ]
WEATHER ALMANAC - OCTOBER 22, 2013
[ Next Day → ]
[ °C ]   °F
Weather ElementAverageHighLow
Temperature46.3 °F55.4 °F (2:15 pm)35.6 °F (11:35 pm)
Dewpoint35.1 °F42.8 °F (10:55 am)26.6 °F (9:15 pm)
Humidity66.3 %81 % (3:15 am)44 % (5:15 pm)
Barometer29.83 in29.95 in (12:35 am)29.76 in (2:35 pm)
Wind Speed4.4 mph13.8 mph (3:35 pm)
Wind Gust19.6 mph (3:15 pm)
Weather ElementAverage
Visibility10 mi
Wind DirectionSSE (157.3 °)

Weather ElementTotal
Precipitation---
Heating Degree Days19.5 (Base 65)
Averaged from 71 records on October 22, 2013
WEATHER CONDITIONS BREAKOUT
WIND DIRECTION BREAKOUT
WEATHER BY HOUR - OCTOBER 22, 2013
[ °C ]   °F
Local TimeTemperatureDewpointHumidityBarometerVisibilityWind DirectionWind SpeedGust SpeedPrecipitationEventsConditions
12:35 AM44.6 °F32.0 °F61 %29.95 in10.0 miCalmClear
12:55 AM42.8 °F32.0 °F66 %29.95 in10.0 miCalmClear
1:15 AM42.8 °F32.0 °F66 %29.95 in10.0 miNE (50°)4.6 mphClear
1:35 AM41.0 °F32.0 °F70 %29.95 in10.0 miNorth (10°)3.5 mphClear
1:55 AM41.0 °F33.8 °F76 %29.94 in10.0 miCalmClear
2:15 AM42.8 °F33.8 °F70 %29.94 in10.0 miEast (100°)3.5 mphClear
2:35 AM41.0 °F33.8 °F76 %29.93 in10.0 miEast (90°)3.5 mphClear
2:55 AM41.0 °F33.8 °F76 %29.91 in10.0 miCalmClear
3:15 AM39.2 °F33.8 °F81 %29.91 in10.0 miCalmScattered Clouds
3:35 AM39.2 °F33.8 °F81 %29.89 in10.0 miCalmMostly Cloudy
3:55 AM42.8 °F33.8 °F70 %29.89 in10.0 miSSE (160°)3.5 mphScattered Clouds
4:15 AM42.8 °F35.6 °F76 %29.89 in10.0 miSE (140°)4.6 mphScattered Clouds
4:35 AM39.2 °F33.8 °F81 %29.88 in10.0 miCalmPartly Cloudy
4:55 AM39.2 °F33.8 °F81 %29.87 in10.0 miESE (120°)4.6 mphScattered Clouds
5:15 AM42.8 °F35.6 °F76 %29.86 in10.0 miSouth (170°)4.6 mphMostly Cloudy
5:35 AM44.6 °F37.4 °F76 %29.86 in10.0 miSSE (160°)4.6 mphOvercast
5:55 AM44.6 °F37.4 °F76 %29.86 in10.0 miSouth (170°)4.6 mphOvercast
6:15 AM44.6 °F37.4 °F76 %29.85 in10.0 miSE (140°)4.6 mphOvercast
6:35 AM42.8 °F37.4 °F81 %29.85 in10.0 miCalmOvercast
6:55 AM42.8 °F37.4 °F81 %29.84 in10.0 miCalmOvercast
7:15 AM42.8 °F37.4 °F81 %29.83 in10.0 miCalmOvercast
7:35 AM42.8 °F37.4 °F81 %29.83 in10.0 miCalmOvercast
7:55 AM44.6 °F37.4 °F76 %29.83 in10.0 miCalmOvercast
8:15 AM44.6 °F39.2 °F81 %29.83 in9.0 miCalmOvercast
8:35 AM44.6 °F39.2 °F81 %29.83 in10.0 miCalmOvercast
8:55 AM44.6 °F39.2 °F81 %29.83 in10.0 miCalmOvercast
9:15 AM46.4 °F39.2 °F76 %29.83 in10.0 miCalmMostly Cloudy
9:35 AM46.4 °F41.0 °F81 %29.83 in10.0 miSouth (170°)3.5 mphMostly Cloudy
9:55 AM48.2 °F41.0 °F76 %29.83 in10.0 miCalmMostly Cloudy
10:15 AM48.2 °F41.0 °F76 %29.83 in10.0 miCalmMostly Cloudy
10:35 AM48.2 °F41.0 °F76 %29.83 in10.0 miCalmScattered Clouds
10:55 AM50.0 °F42.8 °F76 %29.83 in10.0 miCalmScattered Clouds
11:15 AM51.8 °F42.8 °F71 %29.83 in10.0 miNW (310°)6.9 mphMostly Cloudy
11:35 AM50.0 °F42.8 °F76 %29.83 in10.0 miWest (270°)8.1 mphOvercast
11:55 AM51.8 °F42.8 °F71 %29.81 in10.0 miCalmScattered Clouds
12:15 PM51.8 °F42.8 °F71 %29.81 in10.0 miWSW (240°)5.8 mphClear
12:35 PM51.8 °F42.8 °F71 %29.80 in10.0 miSouth (190°)5.8 mphPartly Cloudy
12:55 PM53.6 °F42.8 °F67 %29.80 in10.0 miWest (260°)8.1 mphPartly Cloudy
1:15 PM51.8 °F41.0 °F67 %29.80 in10.0 miWSW (240°)4.6 mphMostly Cloudy
1:35 PM53.6 °F41.0 °F62 %29.78 in10.0 miWest (260°)3.5 mphOvercast
1:55 PM53.6 °F42.8 °F67 %29.78 in10.0 miSW (230°)6.9 mphOvercast
2:15 PM55.4 °F39.2 °F54 %29.77 in10.0 miWSW (240°)8.1 mph17.3 mphMostly Cloudy
2:35 PM55.4 °F37.4 °F51 %29.76 in10.0 miWest (260°)6.9 mphPartly Cloudy
2:55 PM55.4 °F39.2 °F54 %29.76 in10.0 miWest (270°)8.1 mphClear
3:15 PM55.4 °F37.4 °F51 %29.76 in10.0 miWSW (250°)8.1 mph19.6 mphScattered Clouds
3:35 PM55.4 °F37.4 °F51 %29.76 in10.0 miWest (280°)13.8 mphMostly Cloudy
3:55 PM55.4 °F37.4 °F51 %29.76 in10.0 miNW (320°)8.1 mphScattered Clouds
4:15 PM53.6 °F37.4 °F54 %29.76 in10.0 miWNW (300°)8.1 mphPartly Cloudy
4:35 PM53.6 °F37.4 °F54 %29.76 in10.0 miWest (280°)10.4 mph16.1 mphClear
4:55 PM53.6 °F35.6 °F51 %29.77 in10.0 miWNW (300°)9.2 mphScattered Clouds
5:15 PM55.4 °F33.8 °F44 %29.78 in10.0 miWNW (300°)8.1 mphOvercast
5:35 PM53.6 °F33.8 °F47 %29.77 in10.0 miWNW (290°)6.9 mphScattered Clouds
5:55 PM51.8 °F30.2 °F44 %29.79 in10.0 miNW (310°)9.2 mphClear
6:15 PM50.0 °F30.2 °F47 %29.79 in10.0 miNW (320°)10.4 mphClear
6:35 PM48.2 °F32.0 °F54 %29.80 in10.0 miNW (320°)10.4 mphClear
6:55 PM48.2 °F32.0 °F54 %29.81 in10.0 miNW (310°)9.2 mphClear
7:15 PM46.4 °F32.0 °F57 %29.81 in10.0 miNW (320°)8.1 mphClear
7:35 PM46.4 °F30.2 °F53 %29.81 in10.0 miNW (320°)9.2 mphClear
7:55 PM44.6 °F30.2 °F57 %29.81 in10.0 miNW (310°)9.2 mphClear
8:15 PM44.6 °F28.4 °F53 %29.82 in10.0 miWNW (290°)8.1 mphClear
8:35 PM44.6 °F28.4 °F53 %29.82 in10.0 miWNW (290°)5.8 mphClear
8:55 PM44.6 °F28.4 °F53 %29.82 in10.0 miWNW (290°)6.9 mphClear
9:15 PM42.8 °F26.6 °F53 %29.82 in10.0 miWNW (300°)8.1 mphClear
9:35 PM42.8 °F26.6 °F53 %29.83 in10.0 miWNW (290°)4.6 mphClear
9:55 PM41.0 °F26.6 °F57 %29.84 in10.0 miWSW (250°)4.6 mphClear
10:15 PM39.2 °F26.6 °F61 %29.84 in10.0 miWest (280°)5.8 mphClear
10:35 PM39.2 °F26.6 °F61 %29.84 in10.0 miWest (270°)3.5 mphClear
10:55 PM37.4 °F26.6 °F65 %29.85 in10.0 miCalmClear
11:15 PM37.4 °F26.6 °F65 %29.84 in10.0 miCalmClear
11:35 PM35.6 °F26.6 °F70 %29.84 in10.0 miSE (130°)3.5 mphClear
11:55 PM35.6 °F26.6 °F70 %29.83 in10.0 miCalmClear
Hourly data recorded from KMSV, located miles away from Rock Hill, New York







STORIES FROM OUR PARTNERS